Project,Study,Ord_Occ,Event_Num,Date_Time_UTC,Date_Time_PST,Lat_Dec,Lon_Dec,Sta_ID,Line,Sta,Depth,Pressure,Temp0,Temp1,Salt0,CorrSalt0,Salt1,CorrSalt1,O2ml/L,AveCorrO2ml/L,StaCorrO2ml/L,FluorV,AveEstChl,StaEstChl,ISUSV,AveEstNO3,StaEstNO3,SigThetaTS0,SigThetaTS1,BAT,XMiss,SPAR,PAR,BTL_Depth,BTL_Temp,BTL_Salt,BTL_O2ml/L,BTL_Chl,BTL_Pha,BTL_NO3
CalCOFI,0607NH,74,877,24-Jul-2006 03:26:38,23-Jul-2006 19:26:38,35.08583,-120.77487,076.7 049.0,076.7,049.0,1.000,1.007,16.8669,16.8678,33.5566,33.5550,33.5570,33.5574,6.01266,6.38,6.43,1.0651,4.60,4.31,0.0000,0.00,-99,24.4379,24.4380,0.9361,79.1348,1.2102e+00,2.9620e+00,1,16.84 ,33.556, 6.42,4.32,.55,.2
CalCOFI,0607NH,74,877,24-Jul-2006 03:27:22,23-Jul-2006 19:27:22,35.08592,-120.77489,076.7 049.0,076.7,049.0,2.000,2.015,16.8635,16.8633,33.5570,33.5554,33.5572,33.5576,6.02530,6.39,6.45,1.1158,4.86,4.28,0.0000,0.00,-99,24.4391,24.4393,0.9346,79.1636,2.5732e+00,2.2618e+00,,,,,,,
CalCOFI,0607NH,74,877,24-Jul-2006 03:27:35,23-Jul-2006 19:27:35,35.08594,-120.77490,076.7 049.0,076.7,049.0,3.000,3.022,16.8644,16.8650,33.5571,33.5555,33.5573,33.5577,6.01300,6.38,6.44,1.0738,4.65,4.31,0.0000,0.00,-99,24.4390,24.4390,0.9434,78.9902,1.6589e+00,1.7177e+00,,,,,,,
CalCOFI,0607NH,74,877,24-Jul-2006 03:27:38,23-Jul-2006 19:27:38,35.08594,-120.77490,076.7 049.0,076.7,049.0,4.000,4.029,16.8650,16.8650,33.5570,33.5554,33.5573,33.5577,6.00203,6.36,6.42,1.2037,5.30,4.16,0.0000,0.00,-99,24.4388,24.4390,0.9309,79.2378,1.6456e+00,1.4216e+00,,,,,,,
CalCOFI,0607NH,74,877,24-Jul-2006 03:27:40,23-Jul-2006 19:27:40,35.08594,-120.77490,076.7 049.0,076.7,049.0,5.000,5.036,16.8647,16.8635,33.5570,33.5554,33.5573,33.5577,6.01183,6.37,6.43,1.0883,4.72,4.30,0.0000,0.00,-99,24.4389,24.4394,0.9442,78.9746,-9.990e-29,1.1721e+00,,,,,,,
CalCOFI,0607NH,74,877,24-Jul-2006 03:27:42,23-Jul-2006 19:27:42,35.08594,-120.77490,076.7 049.0,076.7,049.0,6.000,6.044,16.8597,16.8550,33.5571,33.5555,33.5572,33.5576,6.00495,6.37,6.43,1.0751,4.65,4.31,0.0000,0.00,-99,24.4402,24.4414,0.9467,78.9259,-9.990e-29,1.0308e+00,,,,,,,
CalCOFI,0607NH,74,877,24-Jul-2006 03:27:44,23-Jul-2006 19:27:44,35.08596,-120.77490,076.7 049.0,076.7,049.0,7.000,7.051,16.8463,16.8377,33.5570,33.5554,33.5574,33.5578,5.99382,6.36,6.41,1.1705,5.13,4.21,0.0000,0.00,-99,24.4433,24.4456,0.9380,79.0962,1.4399e+00,9.3276e-01,,,,,,,
CalCOFI,0607NH,74,877,24-Jul-2006 03:27:47,23-Jul-2006 19:27:47,35.08596,-120.77490,076.7 049.0,076.7,049.0,8.000,8.058,16.7765,16.6907,33.5540,33.5524,33.5562,33.5566,5.96501,6.32,6.38,1.1232,4.89,4.27,0.0000,0.00,-99,24.4573,24.4790,0.9341,79.1737,1.4592e+00,8.6077e-01,,,,,,,
CalCOFI,0607NH,74,877,24-Jul-2006 03:27:49,23-Jul-2006 19:27:49,35.08596,-120.77490,076.7 049.0,076.7,049.0,9.000,9.066,16.5504,16.4822,33.5565,33.5549,33.5575,33.5579,5.93863,6.30,6.35,1.2578,5.58,4.05,0.0000,0.00,-99,24.5118,24.5283,0.9183,79.4869,3.9259e+00,8.1525e-01,,,,,,,
CalCOFI,0607NH,74,877,24-Jul-2006 03:27:51,23-Jul-2006 19:27:51,35.08597,-120.77490,076.7 049.0,076.7,049.0,10.000,10.073,16.3723,16.3102,33.5524,33.5508,33.5600,33.5604,5.92813,6.29,6.34,1.2985,5.79,3.95,0.0000,0.00,-99,24.5498,24.5698,0.9037,79.7782,3.9979e+00,7.8477e-01,10,16.54 ,33.559,,,,
CalCOFI,0607NH,74,877,24-Jul-2006 03:27:53,23-Jul-2006 19:27:53,35.08598,-120.77490,076.7 049.0,076.7,049.0,11.000,11.080,16.2109,16.1389,33.5540,33.5524,33.5586,33.5590,5.88251,6.24,6.29,1.3401,6.01,3.83,0.0000,0.00,-99,24.5880,24.6079,0.8787,80.2784,2.5174e+00,7.5900e-01,,,,,,,
CalCOFI,0607NH,74,877,24-Jul-2006 03:27:55,23-Jul-2006 19:27:55,35.08598,-120.77491,076.7 049.0,076.7,049.0,12.000,12.088,16.0725,16.0511,33.5548,33.5532,33.5550,33.5554,5.85091,6.20,6.25,1.2832,5.71,3.99,0.0000,0.00,-99,24.6202,24.6251,0.8640,80.5733,1.6353e+00,7.4321e-01,,,,,,,
CalCOFI,0607NH,74,877,24-Jul-2006 03:27:57,23-Jul-2006 19:27:57,35.08598,-120.77492,076.7 049.0,076.7,049.0,13.000,13.095,15.9975,15.9909,33.5529,33.5513,33.5536,33.5540,5.79201,6.14,6.19,1.2042,5.30,4.16,0.0000,0.00,-99,24.6357,24.6377,0.8458,80.9402,1.7846e+00,7.3335e-01,,,,,,,
CalCOFI,0607NH,74,877,24-Jul-2006 03:27:59,23-Jul-2006 19:27:59,35.08598,-120.77492,076.7 049.0,076.7,049.0,14.000,14.102,15.9165,15.8921,33.5524,33.5508,33.5541,33.5545,5.73671,6.08,6.13,1.1867,5.21,4.18,0.0000,0.00,-99,24.6536,24.6604,0.8316,81.2281,4.7756e+00,7.2338e-01,,,,,,,
CalCOFI,0607NH,74,877,24-Jul-2006 03:28:01,23-Jul-2006 19:28:01,35.08598,-120.77492,076.7 049.0,076.7,049.0,15.000,15.110,15.8002,15.7220,33.5518,33.5502,33.5543,33.5547,5.50562,5.83,5.87,1.1626,5.09,4.22,0.0000,0.00,-99,24.6794,24.6987,0.7792,82.3011,5.3699e+00,7.1485e-01,,,,,,,
CalCOFI,0607NH,74,877,24-Jul-2006 03:28:03,23-Jul-2006 19:28:03,35.08598,-120.77492,076.7 049.0,076.7,049.0,16.000,16.117,15.1742,15.0761,33.5408,33.5392,33.5461,33.5465,5.25719,5.57,5.59,0.8001,3.33,4.14,0.0000,0.00,-99,24.8094,24.8349,0.6619,84.7536,2.2203e+00,7.0931e-01,,,,,,,
CalCOFI,0607NH,74,877,24-Jul-2006 03:28:05,23-Jul-2006 19:28:05,35.08598,-120.77492,076.7 049.0,076.7,049.0,17.000,17.124,14.6271,14.6038,33.5513,33.5497,33.5490,33.5494,5.02938,5.32,5.33,0.6609,2.70,3.81,0.0000,0.00,-99,24.9360,24.9392,0.5798,86.5071,1.2354e+00,7.0628e-01,,,,,,,
CalCOFI,0607NH,74,877,24-Jul-2006 03:28:07,23-Jul-2006 19:28:07,35.08600,-120.77492,076.7 049.0,076.7,049.0,18.000,18.132,14.0579,13.9529,33.5485,33.5469,33.5553,33.5557,4.84315,5.12,5.12,0.4806,1.91,3.11,0.0000,0.00,-99,25.0537,25.0809,0.5153,87.9150,2.0623e+00,7.0330e-01,,,,,,,
CalCOFI,0607NH,74,877,24-Jul-2006 03:28:09,23-Jul-2006 19:28:09,35.08600,-120.77492,076.7 049.0,076.7,049.0,19.000,19.139,13.5934,13.5195,33.5817,33.5801,33.5857,33.5861,4.77018,5.05,5.04,0.3555,1.39,2.46,0.0000,0.00,-99,25.1753,25.1935,0.4713,88.8852,5.1796e+00,7.0104e-01,,,,,,,
CalCOFI,0607NH,74,877,24-Jul-2006 03:28:11,23-Jul-2006 19:28:11,-9.990e-29,-120.77492,076.7 049.0,076.7,049.0,20.000,20.147,13.4345,13.4108,33.5880,33.5864,33.5913,33.5917,4.69942,4.97,4.96,0.2616,1.01,1.88,0.0000,0.00,-99,25.2126,25.2199,0.4572,89.1989,5.6397e+00,6.9964e-01,20,13.27 ,33.596, 4.99,1.22,.46,7.8
CalCOFI,0607NH,74,877,24-Jul-2006 03:28:13,23-Jul-2006 19:28:13,-9.990e-29,-120.77492,076.7 049.0,076.7,049.0,21.000,21.154,13.3716,13.3689,33.5973,33.5957,33.5968,33.5972,4.65910,4.93,4.92,0.2740,1.06,1.96,0.0000,0.00,-99,25.2325,25.2327,0.4509,89.3383,3.0318e+00,6.9819e-01,,,,,,,
CalCOFI,0607NH,74,877,24-Jul-2006 03:28:15,23-Jul-2006 19:28:15,-9.990e-29,-120.77493,076.7 049.0,076.7,049.0,22.000,22.161,13.3231,13.3115,33.6047,33.6031,33.6055,33.6059,4.63207,4.90,4.89,0.2430,0.93,1.76,0.0000,0.00,-99,25.2481,25.2510,0.4412,89.5576,1.4049e+00,6.9668e-01,,,,,,,
CalCOFI,0607NH,74,877,24-Jul-2006 03:28:17,23-Jul-2006 19:28:17,-9.990e-29,-120.77492,076.7 049.0,076.7,049.0,23.000,23.169,13.2656,13.2656,33.6068,33.6052,33.6058,33.6062,4.62065,4.88,4.87,0.2384,0.91,1.72,0.0000,0.00,-99,25.2613,25.2605,0.4330,89.7418,1.7022e+00,6.9572e-01,,,,,,,
CalCOFI,0607NH,74,877,24-Jul-2006 03:28:19,23-Jul-2006 19:28:19,35.08602,-120.77494,076.7 049.0,076.7,049.0,24.000,24.176,13.2408,13.2345,33.6122,33.6106,33.6116,33.6120,4.55674,4.82,4.80,0.2229,0.85,1.62,0.0000,0.00,-99,25.2705,25.2712,0.4305,89.7983,1.5146e+00,6.9505e-01,,,,,,,
CalCOFI,0607NH,74,877,24-Jul-2006 03:28:21,23-Jul-2006 19:28:21,35.08602,-120.77494,076.7 049.0,076.7,049.0,25.000,25.184,13.0723,13.0658,33.6220,33.6204,33.6190,33.6194,4.42982,4.68,4.66,0.2602,1.00,1.87,0.0000,0.00,-99,25.3117,25.3107,0.4190,90.0549,-9.990e-29,6.9404e-01,,,,,,,
CalCOFI,0607NH,74,877,24-Jul-2006 03:28:23,23-Jul-2006 19:28:23,35.08602,-120.77494,076.7 049.0,076.7,049.0,26.000,26.191,12.9067,12.9152,33.6193,33.6177,33.6195,33.6199,4.35970,4.61,4.58,0.1670,0.63,1.22,0.0000,0.00,-99,25.3425,25.3409,0.4198,90.0388,-9.990e-29,6.9357e-01,,,,,,,
CalCOFI,0607NH,74,877,24-Jul-2006 03:28:25,23-Jul-2006 19:28:25,35.08602,-120.77494,076.7 049.0,076.7,049.0,27.000,27.198,12.7737,12.7753,33.6242,33.6226,33.6231,33.6235,4.35858,4.60,4.58,0.1918,0.73,1.40,0.0000,0.00,-99,25.3725,25.3713,0.4128,90.1946,-9.990e-29,6.9262e-01,,,,,,,
CalCOFI,0607NH,74,877,24-Jul-2006 03:28:27,23-Jul-2006 19:28:27,35.08602,-120.77494,076.7 049.0,076.7,049.0,28.000,28.206,12.7561,12.7498,33.6342,33.6326,33.6344,33.6348,4.35841,4.60,4.58,0.1909,0.72,1.39,0.0000,0.00,-99,25.3837,25.3851,0.4035,90.4035,2.2399e+00,6.9210e-01,,,,,,,
CalCOFI,0607NH,74,877,24-Jul-2006 03:28:29,23-Jul-2006 19:28:29,35.08602,-120.77494,076.7 049.0,076.7,049.0,29.000,29.213,12.7238,12.7264,33.6409,33.6393,33.6394,33.6398,4.33416,4.58,4.55,0.1380,0.52,1.00,0.0000,0.00,-99,25.3952,25.3936,0.4014,90.4517,4.0665e+00,6.9151e-01,,,,,,,
CalCOFI,0607NH,74,877,24-Jul-2006 03:28:31,23-Jul-2006 19:28:31,35.08603,-120.77494,076.7 049.0,076.7,049.0,30.000,30.221,12.6578,12.6544,33.6433,33.6417,33.6407,33.6411,4.31057,4.55,4.53,0.1315,0.49,0.95,0.0000,0.00,-99,25.4100,25.4087,0.3992,90.5021,3.9905e+00,6.9113e-01,30,12.31 ,33.639, 4.51,.51,.47,11.3
CalCOFI,0607NH,74,877,24-Jul-2006 03:28:33,23-Jul-2006 19:28:33,35.08602,-120.77494,076.7 049.0,076.7,049.0,31.000,31.228,12.5769,12.5510,33.6360,33.6344,33.6343,33.6347,4.22062,4.46,4.42,0.1466,0.55,1.06,0.0000,0.00,-99,25.4201,25.4238,0.3973,90.5448,4.2716e+00,6.9038e-01,,,,,,,
CalCOFI,0607NH,74,877,24-Jul-2006 03:28:35,23-Jul-2006 19:28:35,35.08604,-120.77494,076.7 049.0,076.7,049.0,32.000,32.235,12.4791,12.4785,33.6385,33.6369,33.6361,33.6365,4.21637,4.45,4.42,0.1290,0.48,0.93,0.0000,0.00,-99,25.4411,25.4393,0.4008,90.4664,3.7724e+00,6.8985e-01,,,,,,,
CalCOFI,0607NH,74,877,24-Jul-2006 03:28:37,23-Jul-2006 19:28:37,35.08604,-120.77496,076.7 049.0,076.7,049.0,33.000,33.243,12.4467,12.4421,33.6416,33.6400,33.6384,33.6388,4.19848,4.43,4.40,0.1294,0.49,0.93,0.0000,0.00,-99,25.4497,25.4482,0.3935,90.6310,2.9918e+00,6.8956e-01,,,,,,,
CalCOFI,0607NH,74,877,24-Jul-2006 03:28:39,23-Jul-2006 19:28:39,35.08604,-120.77496,076.7 049.0,076.7,049.0,34.000,34.250,12.4183,12.4193,33.6427,33.6411,33.6401,33.6405,4.15564,4.39,4.35,0.1127,0.42,0.80,0.0000,0.00,-99,25.4561,25.4539,0.3920,90.6660,1.5768e+00,6.8917e-01,,,,,,,
CalCOFI,0607NH,74,877,24-Jul-2006 03:28:41,23-Jul-2006 19:28:41,35.08604,-120.77496,076.7 049.0,076.7,049.0,35.000,35.258,12.2932,12.2915,33.6352,33.6336,33.6343,33.6347,4.10067,4.33,4.29,0.1475,0.56,1.07,0.0000,0.00,-99,25.4743,25.4739,0.3891,90.7308,1.5059e+00,6.8872e-01,,,,,,,
CalCOFI,0607NH,74,877,24-Jul-2006 03:28:43,23-Jul-2006 19:28:43,35.08604,-120.77496,076.7 049.0,076.7,049.0,36.000,36.265,12.1731,12.1589,33.6323,33.6307,33.6301,33.6305,4.00431,4.22,4.18,0.1471,0.55,1.07,0.0000,0.00,-99,25.4950,25.4960,0.3928,90.6465,1.5826e+00,6.8820e-01,,,,,,,
CalCOFI,0607NH,74,877,24-Jul-2006 03:28:45,23-Jul-2006 19:28:45,35.08605,-120.77496,076.7 049.0,076.7,049.0,37.000,37.273,12.0928,12.0946,33.6335,33.6319,33.6308,33.6312,3.96224,4.18,4.13,0.1372,0.52,0.99,0.0000,0.00,-99,25.5112,25.5087,0.3902,90.7062,1.5273e+00,6.8785e-01,,,,,,,
CalCOFI,0607NH,74,877,24-Jul-2006 03:28:47,23-Jul-2006 19:28:47,35.08606,-120.77496,076.7 049.0,076.7,049.0,38.000,38.280,12.0345,12.0399,33.6293,33.6277,33.6276,33.6280,3.89532,4.11,4.06,0.1380,0.52,1.00,0.0000,0.00,-99,25.5190,25.5166,0.3901,90.7077,1.3040e+00,6.8743e-01,,,,,,,
CalCOFI,0607NH,74,877,24-Jul-2006 03:28:49,23-Jul-2006 19:28:49,35.08606,-120.77496,076.7 049.0,076.7,049.0,39.000,39.288,11.9257,11.9268,33.6253,33.6237,33.6220,33.6224,3.85114,4.06,4.01,0.1367,0.51,0.99,0.0000,0.00,-99,25.5364,25.5336,0.3914,90.6791,1.4254e+00,6.8723e-01,,,,,,,
CalCOFI,0607NH,74,877,24-Jul-2006 03:28:51,23-Jul-2006 19:28:51,35.08606,-120.77496,076.7 049.0,076.7,049.0,40.000,40.295,11.8605,11.8541,33.6245,33.6229,33.6211,33.6215,3.77323,3.98,3.92,0.1474,0.55,1.07,0.0000,0.00,-99,25.5480,25.5466,0.3933,90.6361,1.6559e+00,6.8712e-01,40,11.74 ,33.623, 3.85,.77,.56,14.6
CalCOFI,0607NH,74,877,24-Jul-2006 03:28:53,23-Jul-2006 19:28:53,35.08606,-120.77496,076.7 049.0,076.7,049.0,41.000,41.303,11.7954,11.7950,33.6238,33.6222,33.6205,33.6209,3.73546,3.94,3.88,0.1383,0.52,1.00,0.0000,0.00,-99,25.5596,25.5572,0.3915,90.6752,1.4111e+00,6.8647e-01,,,,,,,
CalCOFI,0607NH,74,877,24-Jul-2006 03:28:55,23-Jul-2006 19:28:55,35.08606,-120.77496,076.7 049.0,076.7,049.0,42.000,42.310,11.7714,11.7727,33.6234,33.6218,33.6199,33.6203,3.71612,3.92,3.86,0.1347,0.51,0.97,0.0000,0.00,-99,25.5639,25.5609,0.3935,90.6318,1.4605e+00,6.8648e-01,,,,,,,
CalCOFI,0607NH,74,877,24-Jul-2006 03:28:57,23-Jul-2006 19:28:57,35.08606,-120.77496,076.7 049.0,076.7,049.0,43.000,43.318,11.7464,11.7480,33.6229,33.6213,33.6193,33.6197,3.69284,3.89,3.83,0.1718,0.65,1.25,0.0000,0.00,-99,25.5681,25.5650,0.3919,90.6662,1.3719e+00,6.8624e-01,,,,,,,
CalCOFI,0607NH,74,877,24-Jul-2006 03:28:59,23-Jul-2006 19:28:59,35.08606,-120.77497,076.7 049.0,076.7,049.0,44.000,44.325,11.7398,11.7392,33.6250,33.6234,33.6211,33.6215,3.66860,3.87,3.81,0.1259,0.47,0.90,0.0000,0.00,-99,25.5710,25.5681,0.3914,90.6784,1.6826e+00,6.8600e-01,,,,,,,
CalCOFI,0607NH,74,877,24-Jul-2006 03:29:01,23-Jul-2006 19:29:01,35.08608,-120.77497,076.7 049.0,076.7,049.0,45.000,45.333,11.7246,11.7252,33.6260,33.6244,33.6222,33.6226,3.65769,3.85,3.79,0.1493,0.56,1.08,0.0000,0.00,-99,25.5746,25.5716,0.3955,90.5861,1.5152e+00,6.8573e-01,,,,,,,
CalCOFI,0607NH,74,877,24-Jul-2006 03:29:03,23-Jul-2006 19:29:03,35.08608,-120.77498,076.7 049.0,076.7,049.0,46.000,46.340,11.7258,11.7251,33.6293,33.6277,33.6257,33.6261,3.65671,3.85,3.79,0.2031,0.77,1.48,0.0000,0.00,-99,25.5770,25.5743,0.3955,90.5868,1.4802e+00,-9.990e-29,,,,,,,
CalCOFI,0607NH,74,877,24-Jul-2006 03:29:05,23-Jul-2006 19:29:05,35.08608,-120.77498,076.7 049.0,076.7,049.0,47.000,47.348,11.7307,11.7292,33.6341,33.6325,33.6299,33.6303,3.70624,3.91,3.85,0.1608,0.61,1.17,0.0000,0.00,-99,25.5798,25.5769,0.3961,90.5726,1.5301e+00,-9.990e-29,,,,,,,
CalCOFI,0607NH,74,877,24-Jul-2006 03:29:07,23-Jul-2006 19:29:07,35.08608,-120.77498,076.7 049.0,076.7,049.0,48.000,48.355,11.7454,11.7452,33.6407,33.6391,33.6367,33.6371,3.70140,3.90,3.84,0.1285,0.48,0.92,0.0000,0.00,-99,25.5823,25.5792,0.3995,90.4949,1.4866e+00,-9.990e-29,,,,,,,
CalCOFI,0607NH,74,877,24-Jul-2006 03:29:08,23-Jul-2006 19:29:08,35.08608,-120.77498,076.7 049.0,076.7,049.0,49.000,49.363,11.7285,11.7301,33.6399,33.6383,33.6367,33.6371,3.66062,3.86,3.80,0.1371,0.52,0.99,0.0000,0.00,-99,25.5848,25.5820,0.4029,90.4185,1.5482e+00,-9.990e-29,,,,,,,
CalCOFI,0607NH,74,877,24-Jul-2006 03:29:11,23-Jul-2006 19:29:11,-9.990e-29,-120.77498,076.7 049.0,076.7,049.0,50.000,50.370,11.6788,11.6684,33.6362,33.6346,33.6316,33.6320,3.59470,3.79,3.72,0.1528,0.58,1.11,0.0000,0.00,-99,25.5911,25.5895,0.3994,90.4980,1.5361e+00,-9.990e-29,50,11.64 ,33.635, 3.75,1.03,.56,14.7
CalCOFI,0607NH,74,877,24-Jul-2006 03:29:14,23-Jul-2006 19:29:14,-9.990e-29,-120.77498,076.7 049.0,076.7,049.0,51.000,51.378,11.6268,11.6229,33.6340,33.6324,33.6299,33.6303,3.65583,3.85,3.79,0.1132,0.42,0.80,0.0000,0.00,-99,25.5991,25.5966,0.3939,90.6230,3.5751e+00,-9.990e-29,,,,,,,
CalCOFI,0607NH,74,877,24-Jul-2006 03:29:15,23-Jul-2006 19:29:15,-9.990e-29,-120.77498,076.7 049.0,076.7,049.0,52.000,52.385,11.6415,11.6313,33.6483,33.6467,33.6396,33.6400,3.85469,4.06,4.01,0.1269,0.48,0.91,0.0000,0.00,-99,25.6076,25.6027,0.3993,90.4992,3.9505e+00,-9.990e-29,,,,,,,
CalCOFI,0607NH,74,877,24-Jul-2006 03:29:17,23-Jul-2006 19:29:17,35.08610,-120.77498,076.7 049.0,076.7,049.0,53.000,53.393,11.7240,11.7193,33.6717,33.6701,33.6646,33.6650,3.91697,4.13,4.08,0.1767,0.67,1.29,0.0000,0.00,-99,25.6104,25.6058,0.4113,90.2297,3.9441e+00,6.8417e-01,,,,,,,
CalCOFI,0607NH,74,877,24-Jul-2006 03:29:22,23-Jul-2006 19:29:22,35.08610,-120.77500,076.7 049.0,076.7,049.0,54.000,54.400,11.7008,11.7132,33.6646,33.6630,33.6624,33.6628,4.07061,4.30,4.26,0.1186,0.44,0.85,0.0000,0.00,-99,25.6092,25.6052,0.4080,90.3036,4.0131e+00,6.8342e-01,,,,,,,
CalCOFI,0607NH,74,877,24-Jul-2006 03:29:23,23-Jul-2006 19:29:23,35.08610,-120.77500,076.7 049.0,076.7,049.0,55.000,55.408,11.7831,11.7820,33.7084,33.7068,33.7030,33.7034,4.16098,4.39,4.36,0.1677,0.63,1.22,0.0000,0.00,-99,25.6280,25.6240,0.4369,89.6544,3.7589e+00,6.8328e-01,,,,,,,
CalCOFI,0607NH,74,877,24-Jul-2006 03:29:26,23-Jul-2006 19:29:26,35.08610,-120.77500,076.7 049.0,076.7,049.0,56.000,56.415,11.7906,11.7897,33.7148,33.7132,33.7109,33.7113,4.21070,4.45,4.41,0.1585,0.60,1.15,0.0000,0.00,-99,25.6316,25.6288,0.4453,89.4648,4.0482e+00,6.8327e-01,,,,,,,
CalCOFI,0607NH,74,877,24-Jul-2006 03:29:29,23-Jul-2006 19:29:29,-9.990e-29,-120.77500,076.7 049.0,076.7,049.0,57.000,57.423,11.8091,11.8103,33.7223,33.7207,33.7195,33.7199,4.22724,4.46,4.43,0.1581,0.60,1.15,0.0000,0.00,-99,25.6340,25.6316,0.4669,88.9827,1.7956e+00,6.8321e-01,,,,,,,
CalCOFI,0607NH,74,877,24-Jul-2006 03:29:31,23-Jul-2006 19:29:31,-9.990e-29,-120.77500,076.7 049.0,076.7,049.0,58.000,58.431,11.8252,11.8246,33.7280,33.7264,33.7240,33.7244,4.24886,4.49,4.46,0.1581,0.60,1.15,0.0000,0.00,-99,25.6354,25.6324,0.4760,88.7796,1.5566e+00,6.8290e-01,,,,,,,
CalCOFI,0607NH,74,877,24-Jul-2006 03:29:34,23-Jul-2006 19:29:34,35.08612,-120.77501,076.7 049.0,076.7,049.0,59.000,59.438,11.8413,11.8409,33.7337,33.7321,33.7276,33.7280,4.27215,4.51,4.48,0.1997,0.76,1.45,0.0000,0.00,-99,25.6369,25.6322,0.4879,88.5182,3.7803e+00,6.8248e-01,,,,,,,
CalCOFI,0607NH,74,877,24-Jul-2006 03:29:38,23-Jul-2006 19:29:38,35.08612,-120.77502,076.7 049.0,076.7,049.0,60.000,60.446,11.8538,11.8546,33.7377,33.7361,33.7347,33.7351,4.28978,4.53,4.50,0.2298,0.88,1.67,0.0000,0.00,-99,25.6377,25.6352,0.4986,88.2805,4.1182e+00,-9.990e-29,60,11.85 ,33.733, 4.52,2.28,1.08,13.0
CalCOFI,0607NH,74,877,24-Jul-2006 03:29:39,23-Jul-2006 19:29:39,35.08612,-120.77502,076.7 049.0,076.7,049.0,61.000,61.453,11.8540,11.8539,33.7389,33.7373,33.7353,33.7357,4.29206,4.53,4.50,0.1795,0.68,1.31,0.0000,0.00,-99,25.6386,25.6358,0.5080,88.0728,3.9431e+00,-9.990e-29,,,,,,,
CalCOFI,0607NH,74,877,24-Jul-2006 03:29:43,23-Jul-2006 19:29:43,35.08612,-120.77502,076.7 049.0,076.7,049.0,62.000,62.461,11.8523,11.8513,33.7386,33.7370,33.7348,33.7352,4.26630,4.51,4.48,0.1789,0.68,1.30,0.0000,0.00,-99,25.6387,25.6359,0.5037,88.1691,2.1766e+00,6.8225e-01,,,,,,,
CalCOFI,0607NH,74,877,24-Jul-2006 03:29:47,23-Jul-2006 19:29:47,-9.990e-29,-120.77504,076.7 049.0,076.7,049.0,63.000,63.468,11.8030,11.8013,33.7365,33.7349,33.7332,33.7336,4.19733,4.43,4.40,0.1682,0.64,1.22,0.0000,0.00,-99,25.6463,25.6441,0.5474,87.2116,2.0527e+00,6.8178e-01,,,,,,,
CalCOFI,0607NH,74,877,24-Jul-2006 03:29:52,23-Jul-2006 19:29:52,35.08614,-120.77504,076.7 049.0,076.7,049.0,64.000,64.476,11.7838,11.7810,33.7367,33.7351,33.7334,33.7338,4.16660,4.40,4.36,0.1764,0.67,1.29,0.0000,0.00,-99,25.6501,25.6480,0.5675,86.7723,2.5913e+00,6.8150e-01,,,,,,,
CalCOFI,0607NH,74,877,24-Jul-2006 03:30:09,23-Jul-2006 19:30:09,35.08616,-120.77508,076.7 049.0,076.7,049.0,65.000,65.484,11.7727,11.7720,33.7371,33.7355,33.7340,33.7344,4.14495,4.38,4.34,0.1631,0.62,1.19,0.0000,0.00,-99,25.6525,25.6502,0.5846,86.4028,3.4454e+00,6.8121e-01,65,11.77 ,33.734, 4.37,2.04,1.40,13.4
